Time,TemperatureF,DewpointF,PressureIn,WindDirection,WindDirectionDegrees,WindSpeedMPH,WindSpeedGustMPH,Humidity,HourlyPrecipIn,Conditions,Clouds,dailyrainin,SoftwareType,DateUTC
2013-06-23 00:01:00,69.0,65.0,30.24,ESE,108,0.0,0.0,86,0.00,,,0.00,,2013-06-23 04:01:00,
2013-06-23 00:11:00,69.0,65.0,30.24,ESE,108,0.0,0.0,86,0.00,,,0.00,,2013-06-23 04:11:00,
2013-06-23 00:21:00,69.0,65.0,30.24,ESE,108,0.0,0.0,86,0.00,,,0.00,,2013-06-23 04:21:00,
2013-06-23 00:31:00,64.0,62.0,30.27,ESE,108,0.0,0.0,92,0.00,,,0.00,,2013-06-23 04:31:00,
2013-06-23 00:42:00,64.0,62.0,30.27,ESE,108,0.0,0.0,92,0.00,,,0.00,,2013-06-23 04:42:00,
2013-06-23 00:52:00,64.0,62.0,30.27,ESE,108,0.0,0.0,92,0.00,,,0.00,,2013-06-23 04:52:00,
2013-06-23 01:01:00,64.0,62.0,30.27,ESE,108,0.0,0.0,92,0.00,,,0.00,,2013-06-23 05:01:00,
2013-06-23 01:11:00,64.0,62.0,30.27,ESE,108,0.0,0.0,92,0.00,,,0.00,,2013-06-23 05:11:00,
2013-06-23 01:42:00,63.0,61.0,30.26,ESE,108,0.0,0.0,94,0.00,,,0.00,,2013-06-23 05:42:00,
2013-06-23 01:52:00,62.0,60.0,30.25,ESE,107,0.0,0.0,94,0.00,,,0.00,,2013-06-23 05:52:00,
2013-06-23 02:02:00,62.0,60.0,30.25,ESE,108,0.0,0.0,94,0.00,,,0.00,,2013-06-23 06:02:00,
2013-06-23 02:12:00,62.0,61.0,30.25,ESE,107,0.0,0.0,95,0.00,,,0.00,,2013-06-23 06:12:00,
2013-06-23 02:22:00,62.0,60.0,30.24,ESE,108,0.0,0.0,94,0.00,,,0.00,,2013-06-23 06:22:00,
2013-06-23 02:33:00,62.0,61.0,30.24,ESE,108,0.0,0.0,95,0.00,,,0.00,,2013-06-23 06:33:00,
2013-06-23 02:43:00,62.0,61.0,30.24,ESE,107,0.0,0.0,95,0.00,,,0.00,,2013-06-23 06:43:00,
2013-06-23 02:52:00,62.0,61.0,30.24,ESE,108,0.0,0.0,95,0.00,,,0.00,,2013-06-23 06:52:00,
2013-06-23 03:02:00,62.0,61.0,30.23,ESE,107,0.0,0.0,95,0.00,,,0.00,,2013-06-23 07:02:00,
2013-06-23 03:12:00,62.0,61.0,30.23,ESE,108,0.0,0.0,95,0.00,,,0.00,,2013-06-23 07:12:00,
2013-06-23 03:22:00,62.0,61.0,30.23,ESE,108,0.0,0.0,95,0.00,,,0.00,,2013-06-23 07:22:00,
2013-06-23 03:34:00,62.0,61.0,30.23,ESE,108,0.0,0.0,95,0.00,,,0.00,,2013-06-23 07:34:00,
2013-06-23 03:43:00,62.0,61.0,30.23,ESE,108,0.0,0.0,95,0.00,,,0.00,,2013-06-23 07:43:00,
2013-06-23 03:53:00,62.0,61.0,30.22,ESE,108,0.0,0.0,95,0.00,,,0.00,,2013-06-23 07:53:00,
2013-06-23 04:02:00,62.0,61.0,30.22,ESE,108,0.0,0.0,95,0.00,,,0.00,,2013-06-23 08:02:00,
2013-06-23 04:12:00,61.0,60.0,30.22,ESE,107,0.0,0.0,95,0.00,,,0.00,,2013-06-23 08:12:00,
2013-06-23 04:22:00,61.0,60.0,30.22,ESE,108,0.0,0.0,95,0.00,,,0.00,,2013-06-23 08:22:00,
2013-06-23 04:34:00,61.0,60.0,30.22,ESE,108,0.0,0.0,95,0.00,,,0.00,,2013-06-23 08:34:00,
2013-06-23 04:43:00,61.0,60.0,30.22,ESE,108,0.0,0.0,95,0.00,,,0.00,,2013-06-23 08:43:00,
2013-06-23 04:53:00,61.0,60.0,30.22,ESE,108,0.0,0.0,95,0.00,,,0.00,,2013-06-23 08:53:00,
2013-06-23 05:02:00,61.0,60.0,30.22,ESE,108,0.0,0.0,95,0.00,,,0.00,,2013-06-23 09:02:00,
2013-06-23 05:12:00,61.0,60.0,30.23,ESE,107,0.0,0.0,95,0.00,,,0.00,,2013-06-23 09:12:00,
2013-06-23 05:22:00,61.0,60.0,30.23,ESE,108,0.0,0.0,95,0.00,,,0.00,,2013-06-23 09:22:00,
2013-06-23 05:34:00,61.0,60.0,30.24,ESE,107,0.0,0.0,95,0.00,,,0.00,,2013-06-23 09:34:00,
2013-06-23 05:43:00,61.0,60.0,30.24,ESE,108,0.0,0.0,95,0.00,,,0.00,,2013-06-23 09:43:00,
2013-06-23 05:53:00,61.0,60.0,30.25,ESE,108,0.0,0.0,96,0.00,,,0.00,,2013-06-23 09:53:00,
2013-06-23 06:02:00,61.0,60.0,30.25,ESE,108,0.0,0.0,96,0.00,,,0.00,,2013-06-23 10:02:00,
2013-06-23 06:11:00,61.0,60.0,30.25,ESE,108,0.0,0.0,96,0.00,,,0.00,,2013-06-23 10:11:00,
2013-06-23 06:22:00,61.0,60.0,30.26,ESE,107,0.0,0.0,96,0.00,,,0.00,,2013-06-23 10:22:00,
2013-06-23 06:34:00,61.0,60.0,30.26,ESE,108,0.0,0.0,96,0.00,,,0.00,,2013-06-23 10:34:00,
2013-06-23 06:43:00,61.0,60.0,30.27,ESE,108,0.0,0.0,96,0.00,,,0.00,,2013-06-23 10:43:00,
2013-06-23 06:53:00,61.0,60.0,30.27,ESE,108,0.0,0.0,96,0.00,,,0.00,,2013-06-23 10:53:00,
2013-06-23 07:01:00,61.0,60.0,30.27,ESE,107,0.0,0.0,96,0.00,,,0.00,,2013-06-23 11:01:00,
2013-06-23 07:11:00,61.0,60.0,30.27,ESE,108,0.0,0.0,96,0.00,,,0.00,,2013-06-23 11:11:00,
2013-06-23 07:22:00,61.0,60.0,30.27,ESE,108,0.0,0.0,96,0.00,,,0.00,,2013-06-23 11:22:00,
2013-06-23 07:33:00,61.0,60.0,30.27,ESE,108,0.0,0.0,97,0.00,,,0.00,,2013-06-23 11:33:00,
2013-06-23 07:43:00,62.0,61.0,30.28,ESE,107,0.0,0.0,97,0.00,,,0.00,,2013-06-23 11:43:00,
2013-06-23 07:53:00,62.0,61.0,30.28,ESE,108,0.0,0.0,97,0.00,,,0.00,,2013-06-23 11:53:00,
2013-06-23 08:01:00,62.0,61.0,30.28,ESE,107,0.0,0.0,97,0.00,,,0.00,,2013-06-23 12:01:00,
2013-06-23 08:12:00,62.0,61.0,30.28,ESE,108,0.0,0.0,97,0.00,,,0.00,,2013-06-23 12:12:00,
2013-06-23 08:22:00,63.0,62.0,30.29,ESE,107,0.0,0.0,97,0.00,,,0.00,,2013-06-23 12:22:00,
2013-06-23 08:33:00,63.0,62.0,30.29,ESE,108,0.0,0.0,98,0.00,,,0.00,,2013-06-23 12:33:00,
2013-06-23 08:42:00,63.0,62.0,30.31,ESE,108,0.0,0.0,98,0.00,,,0.00,,2013-06-23 12:42:00,
2013-06-23 08:53:00,64.0,64.0,30.31,ESE,108,0.0,0.0,99,0.00,,,0.00,,2013-06-23 12:53:00,
2013-06-23 09:02:00,65.0,65.0,30.31,ESE,108,0.0,0.0,99,0.00,,,0.00,,2013-06-23 13:02:00,
2013-06-23 09:23:00,67.0,66.0,30.30,WNW,291,0.0,2.0,98,0.00,,,0.00,,2013-06-23 13:23:00,
2013-06-23 09:34:00,67.0,66.0,30.30,West,281,0.0,2.0,98,0.00,,,0.00,,2013-06-23 13:34:00,
2013-06-23 09:43:00,68.0,67.0,30.31,West,281,0.0,0.0,96,0.00,,,0.00,,2013-06-23 13:43:00,
2013-06-23 09:53:00,68.0,67.0,30.31,West,281,0.0,0.0,95,0.00,,,0.00,,2013-06-23 13:53:00,
2013-06-23 10:04:00,69.0,67.0,30.30,WSW,250,0.0,0.0,94,0.00,,,0.00,,2013-06-23 14:04:00,
2013-06-23 10:11:00,70.0,68.0,30.31,South,187,0.0,0.0,94,0.00,,,0.00,,2013-06-23 14:11:00,
2013-06-23 10:22:00,71.0,69.0,30.30,East,82,0.0,2.0,93,0.00,,,0.00,,2013-06-23 14:22:00,
2013-06-23 10:34:00,71.0,69.0,30.30,ENE,67,0.0,1.0,92,0.00,,,0.00,,2013-06-23 14:34:00,
2013-06-23 10:44:00,72.0,69.0,30.30,ENE,67,0.0,1.0,90,0.00,,,0.00,,2013-06-23 14:44:00,
2013-06-23 10:52:00,73.0,69.0,30.30,North,5,0.0,2.0,86,0.00,,,0.00,,2013-06-23 14:52:00,
2013-06-23 11:05:00,74.0,70.0,30.30,NE,47,0.0,3.0,86,0.00,,,0.00,,2013-06-23 15:05:00,
2013-06-23 11:11:00,74.0,68.0,30.30,NE,45,0.0,1.0,83,0.00,,,0.00,,2013-06-23 15:11:00,
2013-06-23 11:23:00,75.0,69.0,30.30,NW,325,0.0,2.0,82,0.00,,,0.00,,2013-06-23 15:23:00,
2013-06-23 11:35:00,76.0,70.0,30.30,ESE,116,0.0,1.0,83,0.00,,,0.00,,2013-06-23 15:35:00,
2013-06-23 11:43:00,77.0,70.0,30.30,South,174,0.0,1.0,79,0.00,,,0.00,,2013-06-23 15:43:00,
2013-06-23 11:52:00,78.0,71.0,30.29,SE,134,0.0,1.0,78,0.00,,,0.00,,2013-06-23 15:52:00,
2013-06-23 12:06:00,78.0,71.0,30.29,NE,51,1.0,3.0,78,0.00,,,0.00,,2013-06-23 16:06:00,
2013-06-23 12:12:00,78.0,69.0,30.29,ENE,73,0.0,3.0,74,0.00,,,0.00,,2013-06-23 16:12:00,
2013-06-23 12:22:00,78.0,71.0,30.29,East,84,0.0,0.0,78,0.00,,,0.00,,2013-06-23 16:22:00,
2013-06-23 12:36:00,77.0,70.0,30.30,East,84,0.0,0.0,78,0.00,,,0.00,,2013-06-23 16:36:00,
2013-06-23 12:43:00,77.0,70.0,30.30,East,83,0.0,0.0,79,0.00,,,0.00,,2013-06-23 16:43:00,
2013-06-23 12:53:00,77.0,71.0,30.30,East,84,0.0,0.0,81,0.00,,,0.00,,2013-06-23 16:53:00,
2013-06-23 13:05:00,76.0,69.0,30.30,East,84,0.0,0.0,80,0.00,,,0.00,,2013-06-23 17:05:00,
2013-06-23 13:12:00,76.0,70.0,30.29,East,83,0.0,0.0,82,0.00,,,0.00,,2013-06-23 17:12:00,
2013-06-23 13:22:00,76.0,70.0,30.29,East,84,0.0,0.0,82,0.00,,,0.00,,2013-06-23 17:22:00,
2013-06-23 13:33:00,77.0,71.0,30.29,ENE,64,0.0,0.0,83,0.00,,,0.00,,2013-06-23 17:33:00,
2013-06-23 13:43:00,79.0,71.0,30.28,South,169,0.0,3.0,77,0.00,,,0.00,,2013-06-23 17:43:00,
2013-06-23 13:53:00,79.0,71.0,30.27,SE,136,0.0,1.0,76,0.00,,,0.00,,2013-06-23 17:53:00,
2013-06-23 14:01:00,79.0,71.0,30.27,SE,136,0.0,1.0,76,0.00,,,0.00,,2013-06-23 18:01:00,
2013-06-23 14:12:00,79.0,70.0,30.27,SSE,160,0.0,1.0,73,0.00,,,0.00,,2013-06-23 18:12:00,
2013-06-23 14:22:00,79.0,71.0,30.26,SE,141,0.0,1.0,76,0.00,,,0.00,,2013-06-23 18:22:00,
2013-06-23 14:34:00,80.0,71.0,30.25,SE,138,0.0,2.0,75,0.00,,,0.00,,2013-06-23 18:34:00,
2013-06-23 14:43:00,80.0,71.0,30.25,SE,138,0.0,0.0,74,0.00,,,0.00,,2013-06-23 18:43:00,
2013-06-23 14:53:00,80.0,71.0,30.24,SE,136,0.0,1.0,74,0.00,,,0.00,,2013-06-23 18:53:00,
2013-06-23 15:01:00,80.0,71.0,30.24,ENE,76,0.0,3.0,74,0.00,,,0.00,,2013-06-23 19:01:00,
2013-06-23 15:11:00,80.0,71.0,30.23,NE,36,0.0,1.0,74,0.00,,,0.00,,2013-06-23 19:11:00,
2013-06-23 15:21:00,81.0,71.0,30.23,NNE,17,0.0,3.0,72,0.00,,,0.00,,2013-06-23 19:21:00,
2013-06-23 15:32:00,81.0,71.0,30.23,SE,146,0.0,2.0,71,0.00,,,0.00,,2013-06-23 19:32:00,
2013-06-23 15:43:00,82.0,72.0,30.22,South,178,0.0,2.0,71,0.00,,,0.00,,2013-06-23 19:43:00,
2013-06-23 15:53:00,82.0,70.0,30.22,SSW,192,0.0,2.0,67,0.00,,,0.00,,2013-06-23 19:53:00,
2013-06-23 16:02:00,82.0,69.0,30.22,SSW,194,0.0,1.0,66,0.00,,,0.00,,2013-06-23 20:02:00,
2013-06-23 16:12:00,82.0,70.0,30.22,SSW,194,0.0,1.0,68,0.00,,,0.00,,2013-06-23 20:12:00,
2013-06-23 16:24:00,82.0,70.0,30.22,South,185,1.0,3.0,67,0.00,,,0.00,,2013-06-23 20:24:00,
2013-06-23 16:33:00,82.0,70.0,30.22,SSW,205,0.0,1.0,67,0.00,,,0.00,,2013-06-23 20:33:00,
2013-06-23 16:42:00,81.0,71.0,30.22,South,172,0.0,2.0,71,0.00,,,0.00,,2013-06-23 20:42:00,
2013-06-23 16:53:00,81.0,69.0,30.22,SSE,155,0.0,3.0,68,0.00,,,0.00,,2013-06-23 20:53:00,
2013-06-23 17:01:00,80.0,70.0,30.22,SSE,155,0.0,1.0,72,0.00,,,0.00,,2013-06-23 21:01:00,
2013-06-23 17:11:00,80.0,70.0,30.22,SSE,164,0.0,2.0,72,0.00,,,0.00,,2013-06-23 21:11:00,
2013-06-23 17:22:00,80.0,70.0,30.22,NW,326,0.0,3.0,72,0.00,,,0.00,,2013-06-23 21:22:00,
2013-06-23 17:34:00,80.0,71.0,30.22,NW,326,0.0,0.0,74,0.00,,,0.00,,2013-06-23 21:34:00,
2013-06-23 17:44:00,80.0,70.0,30.22,NW,326,0.0,0.0,72,0.00,,,0.00,,2013-06-23 21:44:00,
2013-06-23 17:52:00,79.0,70.0,30.22,NW,326,0.0,0.0,75,0.00,,,0.00,,2013-06-23 21:52:00,
2013-06-23 18:01:00,79.0,71.0,30.22,NW,326,0.0,0.0,77,0.00,,,0.00,,2013-06-23 22:01:00,
2013-06-23 18:12:00,79.0,71.0,30.22,NW,326,0.0,0.0,76,0.00,,,0.00,,2013-06-23 22:12:00,
2013-06-23 18:22:00,79.0,71.0,30.22,South,187,1.0,2.0,77,0.00,,,0.00,,2013-06-23 22:22:00,
2013-06-23 18:32:00,79.0,70.0,30.22,South,183,0.0,2.0,75,0.00,,,0.00,,2013-06-23 22:32:00,
2013-06-23 18:43:00,79.0,71.0,30.22,South,183,0.0,0.0,76,0.00,,,0.00,,2013-06-23 22:43:00,
2013-06-23 18:53:00,79.0,71.0,30.21,South,183,0.0,1.0,77,0.00,,,0.00,,2013-06-23 22:53:00,
2013-06-23 19:01:00,79.0,72.0,30.21,South,183,0.0,0.0,78,0.00,,,0.00,,2013-06-23 23:01:00,
2013-06-23 19:11:00,78.0,71.0,30.21,South,183,0.0,0.0,78,0.00,,,0.00,,2013-06-23 23:11:00,
2013-06-23 19:22:00,78.0,71.0,30.21,South,183,0.0,1.0,78,0.00,,,0.00,,2013-06-23 23:22:00,
2013-06-23 19:33:00,78.0,71.0,30.22,South,183,0.0,0.0,79,0.00,,,0.00,,2013-06-23 23:33:00,
2013-06-23 19:44:00,78.0,71.0,30.21,South,183,0.0,0.0,78,0.00,,,0.00,,2013-06-23 23:44:00,
2013-06-23 19:52:00,78.0,71.0,30.22,South,183,0.0,1.0,78,0.00,,,0.00,,2013-06-23 23:52:00,
2013-06-23 20:01:00,78.0,70.0,30.21,South,183,0.0,0.0,77,0.00,,,0.00,,2013-06-24 00:01:00,
2013-06-23 20:11:00,77.0,70.0,30.21,South,183,0.0,0.0,78,0.00,,,0.00,,2013-06-24 00:11:00,
2013-06-23 20:22:00,77.0,70.0,30.21,South,183,0.0,0.0,79,0.00,,,0.00,,2013-06-24 00:22:00,
2013-06-23 20:33:00,77.0,70.0,30.22,South,183,0.0,0.0,80,0.00,,,0.00,,2013-06-24 00:33:00,
2013-06-23 20:42:00,77.0,71.0,30.21,South,183,0.0,0.0,82,0.00,,,0.00,,2013-06-24 00:42:00,
2013-06-23 20:52:00,76.0,70.0,30.21,South,183,0.0,0.0,82,0.00,,,0.00,,2013-06-24 00:52:00,
2013-06-23 21:02:00,76.0,70.0,30.21,South,183,0.0,0.0,83,0.00,,,0.00,,2013-06-24 01:02:00,
2013-06-23 21:11:00,75.0,70.0,30.22,South,183,0.0,0.0,84,0.00,,,0.00,,2013-06-24 01:11:00,
2013-06-23 21:22:00,75.0,70.0,30.22,South,183,0.0,0.0,85,0.00,,,0.00,,2013-06-24 01:22:00,
2013-06-23 21:32:00,74.0,70.0,30.23,South,183,0.0,0.0,86,0.00,,,0.00,,2013-06-24 01:32:00,
2013-06-23 21:42:00,73.0,69.0,30.22,South,183,0.0,0.0,88,0.00,,,0.00,,2013-06-24 01:42:00,
2013-06-23 21:53:00,73.0,69.0,30.22,South,183,0.0,0.0,88,0.00,,,0.00,,2013-06-24 01:53:00,
2013-06-23 22:02:00,72.0,68.0,30.22,South,183,0.0,0.0,88,0.00,,,0.00,,2013-06-24 02:02:00,
2013-06-23 22:11:00,72.0,69.0,30.22,South,183,0.0,0.0,89,0.00,,,0.00,,2013-06-24 02:11:00,
2013-06-23 22:22:00,72.0,69.0,30.22,South,183,0.0,0.0,89,0.00,,,0.00,,2013-06-24 02:22:00,
2013-06-23 22:33:00,72.0,69.0,30.23,South,183,0.0,0.0,90,0.00,,,0.00,,2013-06-24 02:33:00,
2013-06-23 22:42:00,71.0,68.0,30.23,South,183,0.0,0.0,91,0.00,,,0.00,,2013-06-24 02:42:00,
2013-06-23 22:53:00,71.0,68.0,30.24,South,183,0.0,0.0,91,0.00,,,0.00,,2013-06-24 02:53:00,
2013-06-23 23:01:00,71.0,68.0,30.24,South,183,0.0,0.0,91,0.00,,,0.00,,2013-06-24 03:01:00,
2013-06-23 23:11:00,71.0,69.0,30.25,South,183,0.0,0.0,92,0.00,,,0.00,,2013-06-24 03:11:00,
2013-06-23 23:22:00,70.0,68.0,30.25,South,183,0.0,0.0,92,0.00,,,0.00,,2013-06-24 03:22:00,
2013-06-23 23:33:00,70.0,68.0,30.27,South,183,0.0,0.0,92,0.00,,,0.00,,2013-06-24 03:33:00,
2013-06-23 23:43:00,70.0,68.0,30.27,South,183,0.0,0.0,93,0.00,,,0.00,,2013-06-24 03:43:00,
2013-06-23 23:53:00,70.0,68.0,30.27,South,183,0.0,0.0,93,0.00,,,0.00,,2013-06-24 03:53:00,